Location: Moy Burn
(57.3833°N, 4.0667°W)
Time: 08:20:05
(UTC+00:00)

Cosmos 468 Rocket - Pass Details

Date: 08 August 2020
Orbit: 744 x 780 km, 74.0° (Epoch: 18 September)

Event Time Altitude Azimuth Distance (km) Brightness Sun altitude
Rises 21:33:14 0° 330° (NNW) 3,279 9.3 -8.9°
Reaches altitude 10° 21:35:38 10° 331° (NNW) 2,347 8.1 -9.1°
Maximum altitude 21:41:00 85° 60° (ENE) 791 4.1 -9.6°
Enters shadow 21:45:48 13° 149° (SSE) 2,130 5.6 -10.0°
